Retour au catalogue

TURKSAT 5B

ActifCommunicationsGEO
NORAD 50212·PAYLOAD·🇹🇷 Turkey

Lancé Dec 19, 2021 depuis Cape Canaveral Space Force Station

Loading…

TLE

FraisSource: Space-Track

Époque: Sep 14, 2026, 19:08 UTC

1 50212U 21126A   26257.79728770  .00000138  00000-0  00000-0 0  9993
2 50212   0.0752 333.2177 0001605 337.8534  11.7032  1.00275509 17198

Suivez TURKSAT 5B en temps réel avec AllMySat

Download on the App Store